Kezdőlap
METAR-TAF:

METAR-TAF

Repülőterek :

S.t James Municipal Airport

St. James, Minnesota, Amerikai Egyesült Államok

földrajzi szélesség: 43-59-11N, földrajzi hosszúság: 094-33-29W, magasság: 325 m

Jelenlegi meteorológiai megfigyelések

A jelentés 14 perccel ezelõtt készült, 01:36 UTC
Dél-délnyugati szél 13 kt
Hőmérséklet -1°C
Páratartalom 80%
Légköri nyomás 1011 hPa
Látótávolság: 16.1 km
Szórványos felhőzet 4300 lábon
Borult 6000 lábon

METAR: KJYG 270136Z AUTO 20013KT 10SM SCT043 OVC060 M01/M04 A2986 RMK AO2

Idő: 19:50 (01:50 UTC)


TAF: hiányzik

Meteorológiai megfigyelések és előrejelzések több, mint 4000 repülőtéren (METAR és TAF jelentéseket).

A térképen piros és sárga pontok jelzik az elérhető meteorológiai állomásokat.

Mozgassa az egeret a pont fölött, hogy megjelenjen az állomás neve.

Azután kattintson az időjárási megfigyelések és előrejelzések megtekintéséhez.

A térkép megváltoztatása: kattintson a fekete keresztel jelölt zöld gombra ráközelítéshez, a vonallal jelölt zöld gombra távolításhoz, vagy a zöld nyilakra a szomszédos térképek eléréséhez.


METAR-TAF: